Regional Weather Roundup
Issued by NWS

Home | Current Version | Previous Version | Text Only | Print | Product List | Glossary Off
Versions: 1 2 3 4 5 6 7 8 9 10 11 12 13 14 15 16 17 18 19 20 21 22 23 24 25 26 27

000
ASUS45 KBOU 200306
RWRCO

WEATHER ROUNDUP FOR COLORADO
NATIONAL WEATHER SERVICE DENVER/BOULDER CO
900 PM MDT SAT APR 19 2014

NOTE: "FAIR" INDICATES FEW OR NO CLOUDS BELOW 12000 FEET WITH NO
SIGNIFICANT WEATHER AND/OR OBSTRUCTIONS TO VISIBILITY.

COZ001>005-013-030-031-200400-
...NORTHWEST COLORADO...

CITY           SKY/WX    TMP DP  RH WIND       PRES   REMARKS
CRAIG          PTCLDY    50  37  61 CALM      30.09R
HAYDEN         PTCLDY    46  37  71 SE3       30.13R
MEEKER         MOCLDY    51  38  60 E6        30.12R
MOUNT WERNER   PTCLDY    39  28  65 CALM      30.28R
STEAMBOAT SPGS MOCLDY    48  31  52 E6        30.12R
WALDEN         PTCLDY    36  32  87 SE7       30.17R
$$

COZ006>008-011-200400-
...WEST CENTRAL VALLEYS...

CITY           SKY/WX    TMP DP  RH WIND       PRES   REMARKS
GRAND JUNCTION PTCLDY    56  44  64 CALM      30.06R
MONTROSE       PTCLDY    54  47  77 SE6       30.11R
EAGLE          MOCLDY    54  39  58 SW5       30.13R
RIFLE          MOCLDY    57  37  47 SW7       30.07R
DELTA          PTCLDY    58  43  56 SW5       30.08R
NUCLA            N/A     54  41  62 E9        30.13R
$$

COZ017>023-064>068-200400-
...SOUTHWEST COLORADO...

CITY           SKY/WX    TMP DP  RH WIND       PRES   REMARKS
DURANGO        CLOUDY    52  35  52 N8        30.10R
CORTEZ         CLEAR     51  31  46 CALM      30.08R
PAGOSA SPRINGS CLOUDY    47  36  66 CALM      30.15R
TELLURIDE      MOCLDY    43  36  75 SE6       30.23R
WOLF CREEK PAS CLOUDY    32  28  86 SW14      30.31R WCI  22
$$

COZ009-010-012-014-032>034-037-058>063-200400-
...CENTRAL COLORADO...

CITY           SKY/WX    TMP DP  RH WIND       PRES   REMARKS
ASPEN          MOCLDY    48  35  60 SE3       30.15R
BUENA VISTA    LGT RAIN  48  38  68 NW3       30.17R
COPPER MTN     SNOW      34  32  93 S3        30.33R VSB 1/4
BERTHOUD PASS  HVY SNOW  27  18  69 W10       30.35R VSB<1/4 WCI  17
COTTONWOOD PAS DRIZZLE   43  32  65 SE3       30.24R
GUNNISON       CLOUDY    50  34  53 E6        30.19R
KREMMLING      DRIZZLE   46  37  71 S9        30.18R
LEADVILLE      CLOUDY    36  33  89 S3        30.24R
MONARCH PASS   MIX PCPN  32  28  86 W13       30.42R WCI  22
SALIDA         MOCLDY    51  36  55 S3        30.22R
SUNLIGHT       CLOUDY    37  34  87 SW3       30.29R
WILKERSON PASS SNOW      32  32 100 E7        30.32R VSB 1/4 WCI  26
$$

COZ069>075-200400-
...SAN LUIS VALLEY/SANGRE DE CRISTO MOUNTAINS...

CITY           SKY/WX    TMP DP  RH WIND       PRES   REMARKS
ALAMOSA        CLOUDY    51  36  56 SE10      30.09R
LA VETA PASS   CLOUDY    39  30  70 CALM      30.25R
SAGUACHE       CLOUDY    50  32  50 NW16      30.14R
$$

COZ035-036-038>040-200400-
...NORTHERN COLORADO FRONT RANGE...

CITY           SKY/WX    TMP DP  RH WIND       PRES   REMARKS
DENVER INTL AP CLOUDY    52  46  80 NW8       30.09R
DMNS CITY PARK   N/A     53  45  73 W10       30.11R
AURORA         MOCLDY    48  48 100 W5        30.12R
FRONT RANGE AP NOT AVBL
ERIE MUNI ARPT LGT RAIN  52  49  89 SW6       30.11R
BOULDER MUN AP LGT RAIN  50  48  93 S5        30.10R
CENTENNIAL     MOCLDY    49  45  86 W6        30.12R
BROOMFIELD     LGT RAIN  52  46  82 SW8       30.13R
FORT COLLINS   CLOUDY    54  45  71 SW3       30.10R
LONGMONT       CLOUDY    52  48  87 W3        30.11R
$$

COZ041-046-047-076>085-087-088-200400-
...PIKES PEAK/PALMER DIVIDE AND SOUTHERN FOOTHILLS...

CITY           SKY/WX    TMP DP  RH WIND       PRES   REMARKS
COLO. SPRINGS  MOCLDY    51  41  68 N12       30.11R
A. F. ACADEMY  PTCLDY    47  40  76 N6        30.13R
ELLICOTT       NOT AVBL
FALCON         PTCLDY    49  33  54 N6        30.14R
FORT CARSON    MOCLDY    52  40  63 NW5       30.08R
LIMON          PTCLDY    54  38  54 NE7       30.08R
MONUMENT HILL  PTCLDY    41  39  93 W7        30.15R
TRINIDAD       CLOUDY    55  40  56 W20       30.02R
$$

COZ042>045-048>051-090-091-200400-
...NORTHEAST COLORADO...

CITY           SKY/WX    TMP DP  RH WIND       PRES   REMARKS
GREELEY ARPT   CLOUDY    55  46  71 SW6       30.08R
AKRON          CLEAR     51  39  63 E7        30.04R
BURLINGTON     MOCLDY    57  46  66 E12       30.03R
WRAY           PTCLDY    55  41  60 NE8       30.02R
STERLING       CLEAR     55  39  54 E3        30.03R
HOLYOKE        PTCLDY    54  39  58 E9        30.01S
FORT MORGAN    CLEAR     55  36  48 NE3       30.06R
$$

COZ086-089-092>099-200400-
...SOUTHEAST COLORADO...

CITY           SKY/WX    TMP DP  RH WIND       PRES   REMARKS
PUEBLO         CLOUDY    64  37  36 NE8       30.02R
LA JUNTA       CLOUDY    65  45  48 NE21G30   29.92R
LAMAR          CLOUDY    64  46  52 S15       29.91R
SPRINGFIELD      N/A     58  43  57 S14       29.98R
$$



USA.gov is the U.S. government's official web portal to all federal, state and local government web resources and services.